Regional Weather Roundup
Issued by NWS Kansas City/Pleasant Hill, MO

Home | Current Version | Previous Version | Text Only | Print | Product List | Glossary On
Versions: 1 2 3 4 5 6 7 8 9 10 11 12 13 14 15 16 17 18 19 20 21 22 23 24 25 26 27 28 29 30 31 32 33 34 35 36 37 38 39 40 41 42 43 44 45 46 47 48 49 50
000
ASUS43 KEAX 010210
RWREAX

WEATHER ROUNDUP FOR EASTERN KANSAS AND NORTHWEST MISSOURI
NATIONAL WEATHER SERVICE KANSAS CITY/PLEASANT HILL MO
800 PM CST TUE FEB 28 2017

KSZ040-057-103>105-MOZ028-029-037-043-010300-
...KANSAS CITY METROPOLITAN AREA...

CITY           SKY/WX    TMP DP  RH WIND       PRES   REMARKS
K.C. INTL      CLOUDY    57  35  43 NW16G29   29.60R
K.C. DOWNTOWN  MOCLDY    62  33  33 W10       29.58R
LEES SUMMIT    CLOUDY    62  44  51 NW16G24   29.57R
OLATHE - IXD   CLOUDY    58  33  39 NW14G26   29.60R
OLATHE - OJC   PTCLDY    60  37  42 NW16G22   29.58R
LAWRENCE         N/A     57  35  43 NW16      29.60R

$$

MOZ001>008-011>017-020>025-030>033-038>040-044>046-053-054-010300-
...NORTHERN AND CENTRAL MISSOURI...

CITY           SKY/WX    TMP DP  RH WIND       PRES   REMARKS
ST. JOSEPH     CLOUDY    49  42  77 NW15      29.64R
MOSBY          PTCLDY    59  32  36 NW12G18   29.59R
WARRENSBURG    CLOUDY    68  57  68 S17G28    29.53F
WHITEMAN AFB   MOCLDY    71  60  69 SW24G35   29.53F
CLINTON        CLOUDY    72  59  64 SW14G22   29.59F
SEDALIA        CLOUDY    72  58  61 SW21G33   29.57R
WARSAW         NOT AVBL
CHILLICOTHE      N/A     59  47  64 NW14G20   29.59R
KIRKSVILLE     CLOUDY    60  51  72 S12       29.53R

$$

MOZ041-047>049-056>058-063>065-088>090-097-010300-
...EASTERN AND SOUTHERN MISSOURI...

CITY           SKY/WX    TMP DP  RH WIND       PRES   REMARKS
ST. LOUIS INTL CLOUDY    68  56  65 S8        29.62F
SPIRIT OF STL  CLOUDY    71  52  50 SW14G20   29.61S
COLUMBIA       MOCLDY    71  56  58 SW20G31   29.57S
JEFFERSON CITY MOCLDY    73  56  54 S15G28    29.56F
ROLLA          CLOUDY    66  56  70 S13G22    29.63F
OSAGE BEACH    MOCLDY    69  57  65 S12       29.62F
SPRINGFIELD    MOCLDY    68  59  73 S13G22    29.64F
BRANSON        CLOUDY    72  59  64 S16G28    29.70F
JOPLIN         CLOUDY    69  61  75 S20       29.63F
WEST PLAINS    MOCLDY    71  60  68 S12       29.73F

$$

IAZ060-094-KSZ022-034>040-054-083-096-NEZ052-066-093-010300-
...KANSAS...SOUTHEAST NEBRASKA AND IOWA...

CITY           SKY/WX    TMP DP  RH WIND       PRES   REMARKS
TOPEKA         CLOUDY    53  42  66 N10       29.61S
MANHATTAN      CLOUDY    49  39  68 N13G21    29.70R
EMPORIA        PTCLDY    51  33  50 NW8       29.61R
CHANUTE        PTCLDY    67  59  75 S13       29.59S
WICHITA        MOCLDY    58  33  39 N21       29.61R
OMAHA          LGT RAIN  39  34  82 NW16      29.71R WCI  30
LINCOLN        CLOUDY    40  34  79 N16       29.74R WCI  31
FALLS CITY     CLOUDY    43  37  79 NW15      29.68R
LAMONI         CLEAR     49  41  74 NW10      29.56R
DES MOINES     CLOUDY    45  42  89 N16G22    29.58S

$$




USA.gov is the U.S. government's official web portal to all federal, state and local government web resources and services.